| time (UTC) | temp F | wind direction | speed MPH | gust MPH | rain 1hr in | rain 24hr in | rain mn in | humidity % | barometer mb |
| 20260904031002 | 57 | 312 | 1.0 | 6.0 | 0.00 | 0.23 | 0.08 | 1 | 1000.4 |
| 20260904030523 | 57 | 315 | 1.0 | 9.0 | 0.00 | 0.23 | 0.08 | 1 | 1000.5 |
| 20260904030024 | 57 | 352 | 0.0 | 9.0 | 0.00 | 0.23 | 0.08 | 1 | 1000.5 |
| 20260904025503 | 57 | 251 | 0.0 | 3.0 | 0.00 | 0.23 | 0.08 | 1 | 1000.4 |
| 20260904025003 | 57 | 288 | 0.0 | 3.0 | 0.00 | 0.23 | 0.08 | 1 | 1000.5 |
| 20260904024503 | 57 | 282 | 0.0 | 3.0 | 0.00 | 0.23 | 0.08 | 1 | 1000.5 |
| 20260904024003 | 57 | 299 | 0.0 | 4.0 | 0.00 | 0.23 | 0.08 | 1 | 1000.5 |
| 20260904023503 | 57 | 294 | 1.0 | 5.0 | 0.00 | 0.23 | 0.08 | 1 | 1000.5 |
| 20260904023024 | 57 | 292 | 1.0 | 8.0 | 0.00 | 0.23 | 0.08 | 1 | 1000.5 |
| 20260904022524 | 56 | 244 | 0.0 | 8.0 | 0.00 | 0.23 | 0.08 | 1 | 1000.6 |
| 20260904022003 | 56 | 302 | 1.0 | 6.0 | 0.00 | 0.23 | 0.08 | 1 | 1000.6 |
| 20260904021502 | 56 | 317 | 1.0 | 6.0 | 0.00 | 0.23 | 0.08 | 1 | 1000.7 |
| 20260904021002 | 56 | 331 | 0.0 | 4.0 | 0.00 | 0.23 | 0.08 | 1 | 1000.8 |
| 20260904020503 | 56 | 10 | 0.0 | 3.0 | 0.00 | 0.23 | 0.08 | 1 | 1000.7 |
| 20260904020003 | 56 | 334 | 0.0 | 3.0 | 0.00 | 0.23 | 0.08 | 1 | 1000.8 |
| 20260904015524 | 56 | 229 | 0.0 | 1.0 | 0.00 | 0.23 | 0.08 | 1 | 1000.7 |
| 20260904015003 | 57 | 295 | 0.0 | 5.0 | 0.00 | 0.23 | 0.08 | 1 | 1000.8 |
| 20260904014503 | 56 | 280 | 0.0 | 5.0 | 0.00 | 0.23 | 0.08 | 1 | 1000.7 |
| 20260904014003 | 56 | 144 | 0.0 | 4.0 | 0.00 | 0.23 | 0.08 | 1 | 1000.7 |
| 20260904013524 | 56 | 152 | 0.0 | 2.0 | 0.00 | 0.23 | 0.08 | 1 | 1000.9 |
| 20260904013003 | 56 | 314 | 0.0 | 9.0 | 0.00 | 0.23 | 0.08 | 1 | 1000.9 |
| 20260904012503 | 56 | 313 | 0.0 | 9.0 | 0.00 | 0.23 | 0.08 | 1 | 1000.9 |
| 20260904012003 | 56 | 180 | 0.0 | 2.0 | 0.00 | 0.23 | 0.08 | 1 | 1001.0 |
| 20260904011524 | 56 | 243 | 0.0 | 3.0 | 0.00 | 0.23 | 0.08 | 1 | 1001.0 |
| 20260904011024 | 56 | 244 | 0.0 | 7.0 | 0.00 | 0.23 | 0.08 | 1 | 1000.9 |
| 20260904010503 | 56 | 257 | 0.0 | 7.0 | 0.00 | 0.23 | 0.08 | 1 | 1000.9 |
| 20260904010003 | 56 | 281 | 1.0 | 7.0 | 0.00 | 0.23 | 0.08 | 1 | 1000.8 |
| 20260904005503 | 56 | 180 | 1.0 | 7.0 | 0.00 | 0.23 | 0.08 | 1 | 1001.0 |
| 20260904005002 | 57 | 120 | 1.0 | 4.0 | 0.00 | 0.23 | 0.08 | 1 | 1001.1 |
| 20260904004503 | 57 | 309 | 0.0 | 4.0 | 0.00 | 0.23 | 0.08 | 1 | 1001.4 |
| 20260904004003 | 57 | 306 | 0.0 | 3.0 | 0.00 | 0.23 | 0.08 | 1 | 1001.4 |
| 20260904003524 | 57 | 129 | 0.0 | 3.0 | 0.00 | 0.23 | 0.08 | 1 | 1001.5 |
| 20260904003003 | 57 | 142 | 0.0 | 3.0 | 0.00 | 0.23 | 0.08 | 1 | 1001.5 |
| 20260904002503 | 57 | 278 | 0.0 | 1.0 | 0.00 | 0.23 | 0.08 | 1 | 1001.8 |
| 20260904002003 | 57 | 289 | 0.0 | 5.0 | 0.00 | 0.23 | 0.08 | 1 | 1001.8 |
| 20260904001503 | 57 | 290 | 0.0 | 6.0 | 0.00 | 0.23 | 0.08 | 1 | 1001.7 |
| 20260904001003 | 57 | 309 | 1.0 | 9.0 | 0.00 | 0.23 | 0.08 | 1 | 1001.7 |
| 20260904000502 | 57 | 310 | 1.0 | 9.0 | 0.00 | 0.23 | 0.08 | 1 | 1001.7 |
| 20260904000003 | 57 | 275 | 1.0 | 4.0 | 0.00 | 0.23 | 0.08 | 1 | 1001.6 |
| 20260903235503 | 57 | 306 | 1.0 | 4.0 | 0.00 | 0.23 | 0.08 | 1 | 1001.6 |
| 20260903235003 | 57 | 320 | 1.0 | 4.0 | 0.00 | 0.23 | 0.08 | 1 | 1001.5 |
| 20260903234503 | 57 | 318 | 0.0 | 2.0 | 0.01 | 0.23 | 0.08 | 1 | 1001.6 |
| 20260903234024 | 57 | 310 | 0.0 | 7.0 | 0.01 | 0.23 | 0.08 | 1 | 1001.6 |
| 20260903233503 | 57 | 301 | 0.0 | 7.0 | 0.01 | 0.23 | 0.08 | 1 | 1001.7 |
| 20260903233024 | 57 | 301 | 0.0 | 4.0 | 0.01 | 0.23 | 0.08 | 1 | 1001.6 |
| 20260903232503 | 57 | 295 | 0.0 | 4.0 | 0.01 | 0.23 | 0.08 | 1 | 1001.6 |
| 20260903232024 | 58 | 310 | 1.0 | 10.0 | 0.02 | 0.23 | 0.08 | 1 | 1001.7 |
| 20260903231502 | 58 | 310 | 1.0 | 10.0 | 0.03 | 0.23 | 0.08 | 1 | 1001.8 |
| 20260903231002 | 58 | 304 | 1.0 | 8.0 | 0.06 | 0.23 | 0.08 | 1 | 1001.8 |
| 20260903230503 | 58 | 318 | 1.0 | 8.0 | 0.07 | 0.23 | 0.08 | 1 | 1001.7 |
| 20260903230003 | 58 | 323 | 0.0 | 7.0 | 0.08 | 0.23 | 0.08 | 1 | 1001.7 |
| 20260903225502 | 58 | 337 | 0.0 | 7.0 | 0.09 | 0.23 | 0.08 | 1 | 1001.7 |
| 20260903225003 | 58 | 308 | 0.0 | 4.0 | 0.10 | 0.23 | 0.08 | 1 | 1001.5 |
| 20260903224524 | 58 | 295 | 0.0 | 4.0 | 0.13 | 0.22 | 0.07 | 1 | 1001.6 |
| 20260903224003 | 58 | 291 | 0.0 | 4.0 | 0.17 | 0.22 | 0.07 | 1 | 1001.6 |
| 20260903223524 | 58 | 130 | 0.0 | 6.0 | 0.18 | 0.22 | 0.07 | 1 | 1001.7 |
| 20260903223003 | 58 | 128 | 0.0 | 6.0 | 0.20 | 0.22 | 0.07 | 1 | 1001.7 |
| 20260903222503 | 58 | 242 | 0.0 | 1.0 | 0.20 | 0.22 | 0.07 | 1 | 1001.8 |
| 20260903222003 | 58 | 261 | 0.0 | 1.0 | 0.20 | 0.21 | 0.06 | 1 | 1001.9 |
| 20260903221503 | 58 | 0 | 0.0 | 0.0 | 0.18 | 0.20 | 0.05 | 1 | 1001.9 |
| 20260903221002 | 58 | 0 | 0.0 | 0.0 | 0.16 | 0.17 | 0.02 | 1 | 1001.9 |
| 20260903220502 | 58 | 0 | 0.0 | 0.0 | 0.14 | 0.16 | 0.01 | 1 | 1001.9 |
| 20260903220005 | 58 | 127 | 0.0 | 1.0 | 0.13 | 0.15 | 0.00 | 1 | 1001.9 |
| 20260903215503 | 58 | 127 | 0.0 | 1.0 | 0.13 | 0.14 | 0.14 | 1 | 1002.0 |
| 20260903215023 | 58 | 0 | 0.0 | 0.0 | 0.11 | 0.13 | 0.13 | 1 | 1001.9 |
| 20260903214524 | 58 | 0 | 0.0 | 0.0 | 0.08 | 0.09 | 0.10 | 1 | 1001.9 |
| 20260903214003 | 58 | 0 | 0.0 | 0.0 | 0.04 | 0.06 | 0.06 | 1 | 1002.0 |
| 20260903213503 | 58 | 0 | 0.0 | 0.0 | 0.02 | 0.04 | 0.04 | 1 | 1002.0 |
| 20260903213003 | 58 | 0 | 0.0 | 0.0 | 0.01 | 0.02 | 0.02 | 1 | 1002.0 |
| 20260903212503 | 57 | 0 | 0.0 | 0.0 | 0.00 | 0.02 | 0.02 | 1 | 1002.0 |
| 20260903212003 | 57 | 0 | 0.0 | 0.0 | 0.00 | 0.02 | 0.02 | 1 | 1002.1 |
| 20260903211503 | 57 | 0 | 0.0 | 0.0 | 0.00 | 0.02 | 0.02 | 1 | 1002.1 |
| 20260903211024 | 57 | 0 | 0.0 | 0.0 | 0.00 | 0.02 | 0.02 | 1 | 1002.2 |
| 20260903210502 | 57 | 0 | 0.0 | 0.0 | 0.00 | 0.02 | 0.02 | 1 | 1002.3 |
| 20260903210003 | 57 | 127 | 0.0 | 1.0 | 0.00 | 0.02 | 0.02 | 1 | 1002.4 |
| 20260903205503 | 57 | 127 | 0.0 | 1.0 | 0.00 | 0.02 | 0.02 | 1 | 1002.4 |
| 20260903205003 | 57 | 0 | 0.0 | 0.0 | 0.00 | 0.02 | 0.02 | 1 | 1002.4 |
| 20260903204524 | 57 | 0 | 0.0 | 0.0 | 0.00 | 0.02 | 0.02 | 1 | 1002.4 |
| 20260903204003 | 57 | 0 | 0.0 | 0.0 | 0.00 | 0.02 | 0.02 | 1 | 1002.4 |
| 20260903203503 | 58 | 0 | 0.0 | 0.0 | 0.00 | 0.02 | 0.02 | 1 | 1002.4 |
| 20260903203003 | 57 | 0 | 0.0 | 0.0 | 0.00 | 0.02 | 0.02 | 1 | 1002.6 |
| 20260903202503 | 57 | 0 | 0.0 | 0.0 | 0.00 | 0.02 | 0.02 | 1 | 1002.7 |
| 20260903202024 | 57 | 0 | 0.0 | 0.0 | 0.00 | 0.02 | 0.02 | 1 | 1002.7 |
| 20260903201503 | 58 | 127 | 0.0 | 1.0 | 0.01 | 0.02 | 0.02 | 1 | 1002.7 |
| 20260903201002 | 58 | 127 | 0.0 | 1.0 | 0.01 | 0.02 | 0.02 | 1 | 1002.7 |
| 20260903200503 | 58 | 0 | 0.0 | 0.0 | 0.01 | 0.02 | 0.02 | 1 | 1002.7 |
| 20260903200003 | 58 | 0 | 0.0 | 0.0 | 0.01 | 0.02 | 0.02 | 1 | 1002.7 |
| 20260903195503 | 58 | 0 | 0.0 | 0.0 | 0.01 | 0.02 | 0.02 | 1 | 1002.7 |
| 20260903195003 | 58 | 0 | 0.0 | 0.0 | 0.01 | 0.02 | 0.02 | 1 | 1002.7 |
| 20260903194524 | 58 | 0 | 0.0 | 0.0 | 0.01 | 0.02 | 0.02 | 1 | 1002.8 |
| 20260903194024 | 58 | 0 | 0.0 | 0.0 | 0.01 | 0.02 | 0.02 | 1 | 1002.7 |
| 20260903193503 | 58 | 0 | 0.0 | 0.0 | 0.01 | 0.02 | 0.02 | 1 | 1002.8 |
| 20260903193003 | 58 | 0 | 0.0 | 0.0 | 0.01 | 0.02 | 0.02 | 1 | 1002.9 |
| 20260903192503 | 58 | 0 | 0.0 | 0.0 | 0.01 | 0.02 | 0.02 | 1 | 1002.9 |
| 20260903192003 | 58 | 0 | 0.0 | 0.0 | 0.01 | 0.02 | 0.02 | 1 | 1003.0 |
| 20260903191503 | 58 | 0 | 0.0 | 0.0 | 0.00 | 0.01 | 0.01 | 1 | 1003.0 |
| 20260903191002 | 58 | 0 | 0.0 | 0.0 | 0.00 | 0.01 | 0.01 | 1 | 1003.1 |
| 20260903190503 | 58 | 0 | 0.0 | 0.0 | 0.00 | 0.01 | 0.01 | 1 | 1003.1 |
| 20260903190003 | 58 | 0 | 0.0 | 0.0 | 0.00 | 0.01 | 0.01 | 1 | 1003.1 |
| 20260903185503 | 58 | 0 | 0.0 | 0.0 | 0.00 | 0.01 | 0.01 | 1 | 1003.1 |
| 20260903185003 | 58 | 0 | 0.0 | 0.0 | 0.00 | 0.01 | 0.01 | 1 | 1003.2 |
| 20260903184503 | 58 | 0 | 0.0 | 0.0 | 0.00 | 0.01 | 0.01 | 1 | 1003.2 |
| 20260903184003 | 58 | 0 | 0.0 | 0.0 | 0.00 | 0.01 | 0.01 | 1 | 1003.1 |
| 20260903183503 | 58 | 0 | 0.0 | 0.0 | 0.00 | 0.01 | 0.01 | 1 | 1003.2 |
| 20260903183003 | 58 | 0 | 0.0 | 0.0 | 0.00 | 0.01 | 0.01 | 1 | 1003.2 |
| 20260903182503 | 58 | 0 | 0.0 | 0.0 | 0.00 | 0.01 | 0.01 | 1 | 1003.2 |
| 20260903182003 | 58 | 0 | 0.0 | 0.0 | 0.00 | 0.01 | 0.01 | 1 | 1003.3 |
| 20260903181503 | 58 | 0 | 0.0 | 0.0 | 0.00 | 0.01 | 0.01 | 1 | 1003.3 |
| 20260903181002 | 58 | 0 | 0.0 | 0.0 | 0.00 | 0.01 | 0.01 | 1 | 1003.3 |
| 20260903180503 | 58 | 0 | 0.0 | 0.0 | 0.00 | 0.01 | 0.01 | 1 | 1003.4 |
| 20260903180024 | 58 | 0 | 0.0 | 0.0 | 0.00 | 0.01 | 0.01 | 1 | 1003.4 |
| 20260903175524 | 58 | 0 | 0.0 | 0.0 | 0.00 | 0.01 | 0.01 | 1 | 1003.4 |
| 20260903175003 | 58 | 0 | 0.0 | 0.0 | 0.00 | 0.01 | 0.01 | 1 | 1003.3 |
| 20260903174524 | 58 | 0 | 0.0 | 0.0 | 0.00 | 0.01 | 0.01 | 1 | 1003.4 |
| 20260903174024 | 58 | 0 | 0.0 | 0.0 | 0.00 | 0.01 | 0.01 | 1 | 1003.4 |
| 20260903173503 | 58 | 0 | 0.0 | 0.0 | 0.00 | 0.01 | 0.01 | 1 | 1003.5 |
| 20260903173003 | 58 | 0 | 0.0 | 0.0 | 0.00 | 0.01 | 0.01 | 1 | 1003.4 |
| 20260903172503 | 58 | 0 | 0.0 | 0.0 | 0.00 | 0.01 | 0.01 | 1 | 1003.5 |
| 20260903172003 | 58 | 0 | 0.0 | 0.0 | 0.00 | 0.01 | 0.01 | 1 | 1003.5 |
| 20260903171503 | 58 | 0 | 0.0 | 0.0 | 0.00 | 0.01 | 0.01 | 1 | 1003.4 |
| 20260903171024 | 58 | 0 | 0.0 | 0.0 | 0.01 | 0.01 | 0.01 | 1 | 1003.2 |
| 20260903170502 | 58 | 0 | 0.0 | 0.0 | 0.01 | 0.01 | 0.01 | 1 | 1003.3 |
| 20260903170003 | 59 | 127 | 0.0 | 1.0 | 0.01 | 0.01 | 0.01 | 1 | 1003.4 |
| 20260903165502 | 59 | 127 | 0.0 | 1.0 | 0.01 | 0.01 | 0.01 | 1 | 1003.5 |
| 20260903165003 | 59 | 0 | 0.0 | 0.0 | 0.01 | 0.01 | 0.01 | 1 | 1003.5 |
| 20260903164503 | 59 | 0 | 0.0 | 0.0 | 0.01 | 0.01 | 0.01 | 1 | 1003.6 |
| 20260903164003 | 59 | 0 | 0.0 | 0.0 | 0.01 | 0.01 | 0.01 | 1 | 1003.7 |
| 20260903163503 | 59 | 0 | 0.0 | 0.0 | 0.01 | 0.01 | 0.01 | 1 | 1003.7 |
| 20260903163003 | 59 | 0 | 0.0 | 0.0 | 0.01 | 0.01 | 0.01 | 1 | 1003.8 |
| 20260903162503 | 59 | 0 | 0.0 | 0.0 | 0.01 | 0.01 | 0.01 | 1 | 1003.8 |
| 20260903162003 | 59 | 0 | 0.0 | 0.0 | 0.01 | 0.01 | 0.01 | 1 | 1003.8 |
| 20260903161503 | 59 | 0 | 0.0 | 0.0 | 0.01 | 0.01 | 0.01 | 1 | 1003.9 |
| 20260903161003 | 59 | 0 | 0.0 | 0.0 | 0.00 | 0.00 | 0.00 | 1 | 1004.0 |
| 20260903160503 | 59 | 0 | 0.0 | 0.0 | 0.00 | 0.00 | 0.00 | 1 | 1004.0 |
| 20260903160003 | 59 | 0 | 0.0 | 0.0 | 0.00 | 0.00 | 0.00 | 1 | 1004.0 |
| 20260903155502 | 59 | 0 | 0.0 | 0.0 | 0.00 | 0.00 | 0.00 | 1 | 1004.1 |
| 20260903155003 | 59 | 0 | 0.0 | 0.0 | 0.00 | 0.00 | 0.00 | 1 | 1004.2 |
| 20260903154503 | 59 | 0 | 0.0 | 0.0 | 0.00 | 0.00 | 0.00 | 1 | 1004.2 |
| 20260903154003 | 59 | 0 | 0.0 | 0.0 | 0.00 | 0.00 | 0.00 | 1 | 1004.2 |
| 20260903153503 | 59 | 131 | 0.0 | 1.0 | 0.00 | 0.00 | 0.00 | 1 | 1004.3 |
| 20260903153003 | 59 | 131 | 0.0 | 1.0 | 0.00 | 0.00 | 0.00 | 1 | 1004.3 |
| 20260903152503 | 60 | 131 | 0.0 | 1.0 | 0.00 | 0.00 | 0.00 | 1 | 1004.4 |
| 20260903152024 | 60 | 131 | 0.0 | 1.0 | 0.00 | 0.00 | 0.00 | 1 | 1004.4 |
| 20260903151503 | 60 | 0 | 0.0 | 0.0 | 0.00 | 0.00 | 0.00 | 1 | 1004.5 |
| 20260903151003 | 60 | 0 | 0.0 | 0.0 | 0.00 | 0.00 | 0.00 | 1 | 1004.5 |
| 20260903150524 | 60 | 131 | 0.0 | 1.0 | 0.00 | 0.00 | 0.00 | 1 | 1004.6 |
| 20260903150003 | 60 | 131 | 0.0 | 1.0 | 0.00 | 0.00 | 0.00 | 1 | 1004.6 |
| 20260903145503 | 60 | 0 | 0.0 | 0.0 | 0.00 | 0.00 | 0.00 | 1 | 1004.6 |
| 20260903145003 | 60 | 0 | 0.0 | 0.0 | 0.00 | 0.00 | 0.00 | 1 | 1004.5 |
| 20260903144503 | 60 | 0 | 0.0 | 0.0 | 0.00 | 0.00 | 0.00 | 1 | 1004.6 |
| 20260903144003 | 60 | 145 | 0.0 | 1.0 | 0.00 | 0.00 | 0.00 | 1 | 1004.7 |
| 20260903143503 | 61 | 57 | 0.0 | 1.0 | 0.00 | 0.00 | 0.00 | 3 | 1004.8 |
| 20260903143003 | 61 | 318 | 0.0 | 1.0 | 0.00 | 0.00 | 0.00 | 8 | 1004.8 |
| 20260903142503 | 62 | 312 | 0.0 | 1.0 | 0.00 | 0.00 | 0.00 | 16 | 1004.9 |
| 20260903142003 | 62 | 0 | 0.0 | 0.0 | 0.00 | 0.00 | 0.00 | 19 | 1004.9 |
| 20260903141503 | 62 | 118 | 0.0 | 3.0 | 0.00 | 0.00 | 0.00 | 26 | 1004.9 |
| 20260903141003 | 62 | 118 | 0.0 | 3.0 | 0.00 | 0.00 | 0.00 | 31 | 1004.9 |
| 20260903140524 | 63 | 120 | 0.0 | 2.0 | 0.00 | 0.00 | 0.00 | 33 | 1005.0 |
| 20260903140003 | 63 | 131 | 0.0 | 2.0 | 0.00 | 0.00 | 0.00 | 35 | 1005.1 |
| 20260903135503 | 63 | 132 | 0.0 | 2.0 | 0.00 | 0.00 | 0.00 | 35 | 1005.1 |
| 20260903135003 | 63 | 0 | 0.0 | 0.0 | 0.00 | 0.00 | 0.00 | 35 | 1005.2 |
| 20260903134503 | 63 | 139 | 0.0 | 1.0 | 0.00 | 0.00 | 0.00 | 37 | 1005.2 |
| 20260903134003 | 63 | 134 | 0.0 | 2.0 | 0.00 | 0.00 | 0.00 | 42 | 1005.3 |
| 20260903133503 | 63 | 134 | 0.0 | 2.0 | 0.00 | 0.00 | 0.00 | 45 | 1005.3 |
| 20260903133003 | 64 | 139 | 0.0 | 3.0 | 0.00 | 0.00 | 0.00 | 46 | 1005.3 |
| 20260903132503 | 64 | 145 | 0.0 | 3.0 | 0.00 | 0.00 | 0.00 | 47 | 1005.4 |
| 20260903132024 | 64 | 0 | 0.0 | 0.0 | 0.00 | 0.00 | 0.00 | 48 | 1005.5 |
| 20260903131503 | 64 | 0 | 0.0 | 0.0 | 0.00 | 0.00 | 0.00 | 50 | 1005.5 |
| 20260903131024 | 64 | 130 | 0.0 | 3.0 | 0.00 | 0.00 | 0.00 | 51 | 1005.6 |
| 20260903130502 | 64 | 141 | 0.0 | 3.0 | 0.00 | 0.00 | 0.00 | 53 | 1005.6 |
| 20260903130003 | 64 | 153 | 0.0 | 1.0 | 0.00 | 0.00 | 0.00 | 53 | 1005.6 |
| 20260903125502 | 64 | 153 | 0.0 | 1.0 | 0.00 | 0.00 | 0.00 | 52 | 1005.7 |
| 20260903125002 | 65 | 0 | 0.0 | 0.0 | 0.00 | 0.00 | 0.00 | 53 | 1005.7 |
| 20260903124503 | 65 | 0 | 0.0 | 0.0 | 0.00 | 0.00 | 0.00 | 56 | 1005.7 |
| 20260903124003 | 65 | 0 | 0.0 | 0.0 | 0.00 | 0.00 | 0.00 | 52 | 1005.8 |
| 20260903123503 | 64 | 0 | 0.0 | 0.0 | 0.00 | 0.00 | 0.00 | 52 | 1005.8 |
| 20260903123003 | 64 | 133 | 0.0 | 1.0 | 0.00 | 0.00 | 0.00 | 52 | 1005.8 |
| 20260903122503 | 64 | 125 | 0.0 | 1.0 | 0.00 | 0.00 | 0.00 | 52 | 1005.8 |
| 20260903122003 | 64 | 80 | 0.0 | 1.0 | 0.00 | 0.00 | 0.00 | 52 | 1005.9 |
| 20260903121503 | 64 | 60 | 0.0 | 1.0 | 0.00 | 0.00 | 0.00 | 52 | 1006.0 |
| 20260903121003 | 64 | 287 | 0.0 | 1.0 | 0.00 | 0.00 | 0.00 | 49 | 1006.1 |
| 20260903120503 | 64 | 287 | 0.0 | 1.0 | 0.00 | 0.00 | 0.00 | 48 | 1006.2 |
| 20260903120003 | 64 | 264 | 0.0 | 1.0 | 0.00 | 0.00 | 0.00 | 48 | 1006.3 |
| 20260903115503 | 64 | 292 | 0.0 | 1.0 | 0.00 | 0.00 | 0.00 | 49 | 1006.4 |
| 20260903115002 | 64 | 285 | 0.0 | 1.0 | 0.00 | 0.00 | 0.00 | 47 | 1006.5 |
| 20260903114503 | 64 | 268 | 0.0 | 1.0 | 0.00 | 0.00 | 0.00 | 51 | 1006.5 |
| 20260903114003 | 64 | 251 | 0.0 | 1.0 | 0.00 | 0.00 | 0.00 | 51 | 1006.6 |
| 20260903113503 | 64 | 251 | 0.0 | 1.0 | 0.00 | 0.00 | 0.00 | 51 | 1006.6 |
| 20260903113003 | 64 | 0 | 0.0 | 0.0 | 0.00 | 0.00 | 0.00 | 52 | 1006.6 |
| 20260903112503 | 64 | 251 | 0.0 | 1.0 | 0.00 | 0.00 | 0.00 | 53 | 1006.8 |
| 20260903112003 | 64 | 269 | 0.0 | 1.0 | 0.00 | 0.00 | 0.00 | 57 | 1006.8 |
| 20260903111503 | 64 | 283 | 0.0 | 1.0 | 0.00 | 0.00 | 0.00 | 58 | 1006.9 |
| 20260903111003 | 65 | 301 | 0.0 | 1.0 | 0.00 | 0.00 | 0.00 | 59 | 1006.9 |
| 20260903110503 | 65 | 305 | 0.0 | 1.0 | 0.00 | 0.00 | 0.00 | 59 | 1006.9 |
| 20260903110003 | 65 | 261 | 0.0 | 1.0 | 0.00 | 0.00 | 0.00 | 59 | 1007.1 |
| 20260903105503 | 65 | 261 | 0.0 | 1.0 | 0.00 | 0.00 | 0.00 | 56 | 1007.1 |
| 20260903105003 | 65 | 0 | 0.0 | 0.0 | 0.00 | 0.00 | 0.00 | 58 | 1007.1 |
| 20260903104503 | 64 | 0 | 0.0 | 0.0 | 0.00 | 0.00 | 0.00 | 56 | 1007.3 |
| 20260903104003 | 64 | 0 | 0.0 | 0.0 | 0.00 | 0.00 | 0.00 | 53 | 1007.3 |
| 20260903103503 | 64 | 0 | 0.0 | 0.0 | 0.00 | 0.00 | 0.00 | 54 | 1007.4 |
| 20260903103003 | 63 | 0 | 0.0 | 0.0 | 0.00 | 0.00 | 0.00 | 51 | 1007.5 |
| 20260903102524 | 63 | 0 | 0.0 | 0.0 | 0.00 | 0.00 | 0.00 | 50 | 1007.4 |
| 20260903102003 | 63 | 285 | 0.0 | 1.0 | 0.00 | 0.00 | 0.00 | 52 | 1007.5 |
| 20260903101503 | 62 | 284 | 0.0 | 1.0 | 0.00 | 0.00 | 0.00 | 49 | 1007.6 |
| 20260903101003 | 62 | 283 | 0.0 | 1.0 | 0.00 | 0.00 | 0.00 | 49 | 1007.6 |
| 20260903100503 | 62 | 292 | 0.0 | 1.0 | 0.00 | 0.00 | 0.00 | 48 | 1007.6 |
| 20260903100024 | 61 | 282 | 0.0 | 1.0 | 0.00 | 0.00 | 0.00 | 52 | 1007.7 |
| 20260903095503 | 61 | 243 | 0.0 | 3.0 | 0.00 | 0.00 | 0.00 | 47 | 1007.8 |
| 20260903095003 | 61 | 257 | 0.0 | 3.0 | 0.00 | 0.00 | 0.00 | 51 | 1007.8 |
| 20260903094502 | 61 | 271 | 0.0 | 1.0 | 0.00 | 0.00 | 0.00 | 49 | 1007.8 |
| 20260903094024 | 61 | 279 | 0.0 | 1.0 | 0.00 | 0.00 | 0.00 | 45 | 1007.8 |
| 20260903093503 | 61 | 279 | 0.0 | 1.0 | 0.00 | 0.00 | 0.00 | 49 | 1007.8 |
| 20260903093024 | 62 | 0 | 0.0 | 0.0 | 0.00 | 0.00 | 0.00 | 47 | 1007.9 |
| 20260903092503 | 61 | 69 | 0.0 | 1.0 | 0.00 | 0.00 | 0.00 | 47 | 1007.9 |
| 20260903092003 | 61 | 69 | 0.0 | 1.0 | 0.00 | 0.00 | 0.00 | 43 | 1007.9 |
| 20260903091503 | 61 | 50 | 0.0 | 1.0 | 0.00 | 0.00 | 0.00 | 44 | 1008.0 |
| 20260903091003 | 61 | 50 | 0.0 | 1.0 | 0.00 | 0.00 | 0.00 | 48 | 1008.0 |
| 20260903090524 | 60 | 0 | 0.0 | 0.0 | 0.00 | 0.00 | 0.00 | 47 | 1008.0 |
| 20260903090003 | 60 | 309 | 0.0 | 1.0 | 0.00 | 0.00 | 0.00 | 45 | 1008.1 |
| 20260903085503 | 60 | 304 | 0.0 | 1.0 | 0.00 | 0.00 | 0.00 | 44 | 1008.1 |
| 20260903085003 | 60 | 291 | 0.0 | 1.0 | 0.00 | 0.00 | 0.00 | 45 | 1008.2 |
| 20260903084503 | 60 | 294 | 0.0 | 1.0 | 0.00 | 0.00 | 0.00 | 44 | 1008.2 |
| 20260903084003 | 60 | 283 | 0.0 | 3.0 | 0.00 | 0.00 | 0.00 | 44 | 1008.2 |
| 20260903083503 | 60 | 283 | 0.0 | 3.0 | 0.00 | 0.00 | 0.00 | 49 | 1008.2 |
| 20260903083003 | 60 | 278 | 0.0 | 1.0 | 0.00 | 0.00 | 0.00 | 48 | 1008.2 |
| 20260903082524 | 60 | 276 | 0.0 | 1.0 | 0.00 | 0.00 | 0.00 | 51 | 1008.2 |
| 20260903082003 | 60 | 310 | 0.0 | 2.0 | 0.00 | 0.00 | 0.00 | 49 | 1008.3 |
| 20260903081503 | 60 | 313 | 0.0 | 2.0 | 0.00 | 0.00 | 0.00 | 50 | 1008.3 |
| 20260903081003 | 60 | 281 | 0.0 | 1.0 | 0.00 | 0.00 | 0.00 | 45 | 1008.3 |
| 20260903080503 | 60 | 281 | 0.0 | 1.0 | 0.00 | 0.00 | 0.00 | 47 | 1008.4 |
| 20260903080003 | 59 | 219 | 0.0 | 1.0 | 0.00 | 0.00 | 0.00 | 44 | 1008.5 |
| 20260903075502 | 59 | 238 | 0.0 | 1.0 | 0.00 | 0.00 | 0.00 | 46 | 1008.7 |
| 20260903075024 | 59 | 277 | 0.0 | 1.0 | 0.00 | 0.00 | 0.00 | 47 | 1008.6 |
| 20260903074503 | 59 | 274 | 0.0 | 1.0 | 0.00 | 0.00 | 0.00 | 49 | 1008.6 |
| 20260903074003 | 59 | 282 | 0.0 | 1.0 | 0.00 | 0.00 | 0.00 | 47 | 1008.6 |
| 20260903073503 | 59 | 293 | 0.0 | 1.0 | 0.00 | 0.00 | 0.00 | 46 | 1008.6 |
| 20260903073003 | 59 | 0 | 0.0 | 0.0 | 0.00 | 0.00 | 0.00 | 43 | 1008.7 |
| 20260903072524 | 59 | 0 | 0.0 | 0.0 | 0.00 | 0.00 | 0.00 | 42 | 1008.7 |
| 20260903072003 | 58 | 273 | 0.0 | 1.0 | 0.00 | 0.00 | 0.00 | 39 | 1008.7 |
| 20260903071503 | 58 | 273 | 0.0 | 1.0 | 0.00 | 0.00 | 0.00 | 33 | 1008.8 |
| 20260903071003 | 58 | 0 | 0.0 | 0.0 | 0.00 | 0.00 | 0.00 | 30 | 1008.7 |
| 20260903070503 | 57 | 0 | 0.0 | 0.0 | 0.00 | 0.00 | 0.00 | 30 | 1008.7 |
| 20260903070002 | 57 | 266 | 0.0 | 1.0 | 0.00 | 0.00 | 0.00 | 32 | 1008.8 |
| 20260903065524 | 57 | 266 | 0.0 | 1.0 | 0.00 | 0.00 | 0.00 | 31 | 1008.8 |
| 20260903065003 | 56 | 0 | 0.0 | 0.0 | 0.00 | 0.00 | 0.00 | 30 | 1008.8 |
| 20260903064502 | 56 | 0 | 0.0 | 0.0 | 0.00 | 0.00 | 0.00 | 28 | 1008.7 |
| 20260903064003 | 56 | 0 | 0.0 | 0.0 | 0.00 | 0.00 | 0.00 | 25 | 1008.8 |
| 20260903063503 | 55 | 0 | 0.0 | 0.0 | 0.00 | 0.00 | 0.00 | 21 | 1008.8 |
| 20260903063003 | 55 | 67 | 0.0 | 1.0 | 0.00 | 0.00 | 0.00 | 18 | 1008.9 |
| 20260903062503 | 55 | 62 | 0.0 | 1.0 | 0.00 | 0.00 | 0.00 | 19 | 1008.8 |
| 20260903062024 | 54 | 57 | 0.0 | 1.0 | 0.00 | 0.00 | 0.00 | 13 | 1008.8 |
| 20260903061503 | 54 | 0 | 0.0 | 0.0 | 0.00 | 0.00 | 0.00 | 11 | 1008.9 |
| 20260903061003 | 54 | 0 | 0.0 | 0.0 | 0.00 | 0.00 | 0.00 | 7 | 1008.9 |
| 20260903060503 | 53 | 0 | 0.0 | 0.0 | 0.00 | 0.00 | 0.00 | 7 | 1009.0 |
| 20260903060003 | 53 | 0 | 0.0 | 0.0 | 0.00 | 0.00 | 0.00 | 7 | 1009.0 |
| 20260903055503 | 53 | 0 | 0.0 | 0.0 | 0.00 | 0.00 | 0.00 | 7 | 1008.9 |
| 20260903055002 | 52 | 0 | 0.0 | 0.0 | 0.00 | 0.00 | 0.00 | 4 | 1009.0 |
| 20260903054524 | 52 | 0 | 0.0 | 0.0 | 0.00 | 0.00 | 0.00 | 4 | 1009.1 |
| 20260903054024 | 52 | 0 | 0.0 | 0.0 | 0.00 | 0.00 | 0.00 | 6 | 1009.1 |
| 20260903053502 | 52 | 0 | 0.0 | 0.0 | 0.00 | 0.00 | 0.00 | 11 | 1009.1 |
| 20260903053024 | 53 | 0 | 0.0 | 0.0 | 0.00 | 0.00 | 0.00 | 45 | 1009.1 |
| 20260903052503 | 53 | 0 | 0.0 | 0.0 | 0.00 | 0.00 | 0.00 | 45 | 1009.1 |
| 20260903052003 | 53 | 0 | 0.0 | 0.0 | 0.00 | 0.00 | 0.00 | 45 | 1009.1 |
| 20260903051503 | 53 | 0 | 0.0 | 0.0 | 0.00 | 0.00 | 0.00 | 45 | 1009.1 |
| 20260903051024 | 53 | 0 | 0.0 | 0.0 | 0.00 | 0.00 | 0.00 | 45 | 1009.3 |
| 20260903050503 | 53 | 0 | 0.0 | 0.0 | 0.00 | 0.00 | 0.00 | 45 | 1009.3 |
| 20260903050003 | 53 | 0 | 0.0 | 0.0 | 0.00 | 0.00 | 0.00 | 45 | 1009.3 |
| 20260903045503 | 53 | 0 | 0.0 | 0.0 | 0.00 | 0.00 | 0.00 | 45 | 1009.3 |
| 20260903045002 | 53 | 0 | 0.0 | 0.0 | 0.00 | 0.00 | 0.00 | 45 | 1009.3 |
| 20260903044502 | 53 | 0 | 0.0 | 0.0 | 0.00 | 0.00 | 0.00 | 45 | 1009.4 |
| 20260903044003 | 53 | 0 | 0.0 | 0.0 | 0.00 | 0.00 | 0.00 | 45 | 1009.4 |
| 20260903043524 | 53 | 0 | 0.0 | 0.0 | 0.00 | 0.00 | 0.00 | 45 | 1009.4 |
| 20260903043003 | 53 | 0 | 0.0 | 0.0 | 0.00 | 0.00 | 0.00 | 45 | 1009.4 |
| 20260903042503 | 53 | 0 | 0.0 | 0.0 | 0.00 | 0.00 | 0.00 | 45 | 1009.4 |
| 20260903042003 | 53 | 0 | 0.0 | 0.0 | 0.00 | 0.00 | 0.00 | 45 | 1009.4 |
| 20260903041503 | 54 | 0 | 0.0 | 0.0 | 0.00 | 0.00 | 0.00 | 45 | 1009.5 |
| 20260903041003 | 54 | 216 | 0.0 | 1.0 | 0.00 | 0.00 | 0.00 | 48 | 1009.5 |
| 20260903040524 | 54 | 216 | 0.0 | 1.0 | 0.00 | 0.00 | 0.00 | 50 | 1009.6 |
| 20260903040003 | 54 | 0 | 0.0 | 0.0 | 0.00 | 0.00 | 0.00 | 51 | 1009.5 |
| 20260903035502 | 54 | 341 | 0.0 | 2.0 | 0.00 | 0.01 | 0.00 | 51 | 1009.5 |
| 20260903035002 | 54 | 341 | 0.0 | 2.0 | 0.00 | 0.01 | 0.00 | 52 | 1009.5 |
| 20260903034503 | 54 | 0 | 0.0 | 0.0 | 0.00 | 0.01 | 0.00 | 52 | 1009.5 |
| 20260903034003 | 54 | 311 | 0.0 | 3.0 | 0.00 | 0.01 | 0.00 | 54 | 1009.6 |
| 20260903033524 | 54 | 313 | 0.0 | 3.0 | 0.00 | 0.01 | 0.00 | 53 | 1009.5 |
| 20260903033003 | 54 | 69 | 0.0 | 1.0 | 0.00 | 0.01 | 0.00 | 53 | 1009.6 |
| 20260903032503 | 54 | 144 | 0.0 | 3.0 | 0.00 | 0.01 | 0.00 | 53 | 1009.6 |
| 20260903032003 | 53 | 144 | 0.0 | 3.0 | 0.00 | 0.01 | 0.00 | 53 | 1009.6 |
| 20260903031524 | 53 | 269 | 0.0 | 2.0 | 0.00 | 0.01 | 0.00 | 53 | 1009.7 |